Regional Weather Roundup
Issued by NWS

Home | Current Version | Previous Version | Graphics & Text | Print | Product List | Glossary On
Versions: 1 2 3 4 5 6 7 8 9 10 11 12 13 14 15 16 17 18 19 20 21 22 23 24 25 26 27 28 29 30 31 32 33 34 35 36 37 38 39 40 41 42 43 44 45 46 47 48 49 50
000
ASUS43 KDMX 031507
RWRIA

WEATHER ROUNDUP FOR IOWA
NATIONAL WEATHER SERVICE DES MOINES IA
1000 AM CDT SUN MAY 03 2015

NOTE: "FAIR" INDICATES FEW OR NO CLOUDS BELOW 12,000 FEET WITH NO
SIGNIFICANT WEATHER AND/OR OBSTRUCTIONS TO VISIBILITY.

* - THESE STATIONS ARE NOT NWS STATIONS...THUS NOT UNDER NWS
QUALITY CONTROL.  THEY ALSO DO NOT REPORT WEATHER SUCH
AS PRECIPITATION OR FOG.

IAZ001>003-012>014-020>022-031>034-043>046-031600-
   NORTHWEST IOWA

CITY           SKY/WX    TMP DP  RH WIND       PRES   REMARKS
CARROLL *      SUNNY     73  57  56 SW21G28   29.78R
CHEROKEE *     SUNNY     70  57  64 SW10      29.76F
DENISON *      SUNNY     70  61  73 S14G23    29.75S
LE MARS *      SUNNY     72  55  56 S16G23    29.76S
ORANGE CITY *  SUNNY     68  54  60 S17G23    29.76S
SHELDON *      SUNNY     70  57  64 S8G15     29.76F
SIOUX CITY     SUNNY     72  55  55 S9        29.75S
SPENCER        MOSUNNY   71  53  52 SW12      29.78S
STORM LAKE *   SUNNY     72  55  56 S20       29.78F
$$

IAZ055>058-069>071-079>083-090>094-031600-
   SOUTHWEST IOWA

CITY           SKY/WX    TMP DP  RH WIND       PRES   REMARKS
ATLANTIC *     SUNNY     70  61  73 S15G23    29.78S
AUDUBON *      SUNNY     70  61  73 S14G20    29.80R
CLARINDA *     SUNNY     72  59  64 S16G25    29.80F
COUNCIL BLFS * SUNNY     70  63  78 S13G22    29.76S
CRESTON *      SUNNY     68  59  73 S16       29.81F
HARLAN  *      SUNNY     68  64  88 S16G24    29.80S
LAMONI         MOSUNNY   68  57  68 S13       29.83F
RED OAK *      SUNNY     72  61  68 S21       29.77F
SHENANDOAH *   SUNNY     72  59  64 S21G31    29.77F
$$

IAZ047>049-059>061-072>074-084-031600-
   CENTRAL IOWA

CITY           SKY/WX    TMP DP  RH WIND       PRES   REMARKS
AMES           SUNNY     68  58  70 S8        29.81S
ANKENY *       SUNNY     70  57  64 S10       29.81S
CHARITON *     SUNNY     66  57  72 S20       29.84S
DES MOINES     PTSUNNY   71  57  61 S15       29.81R
GRINNELL*      PTSUNNY   66  57  72 S9        29.85S
KNOXVILLE *    SUNNY     68  55  64 S15       29.82S
MARSHALLTOWN   MOSUNNY   64  57  78 S8        29.82S
PELLA *        MOSUNNY   70  61  73 SW13      29.84S
PERRY *          N/A     73  57  56 SW18      29.79F
$$

IAZ004>006-015-016-023>025-035-036-031600-
   NORTH CENTRAL IOWA

CITY           SKY/WX    TMP DP  RH WIND       PRES   REMARKS
ALGONA *       SUNNY     68  55  64 S14       29.80S
CLARION *      SUNNY     72  55  56 S13       29.80F
ESTHERVILLE    MOSUNNY   67  53  61 S8        29.78R
FORT DODGE *   MOSUNNY   70  57  64 S14       29.81S
MASON CITY     MOSUNNY   68  55  63 S10       29.83R
FOREST CITY *  SUNNY     68  54  60 S12       29.81S
IOWA FALLS *     N/A     68  57  68 S10       29.83R
$$

IAZ007>011-017>019-026>030-037>042-050>054-066-031600-
   NORTHEAST IOWA

CITY           SKY/WX    TMP DP  RH WIND       PRES   REMARKS
CEDAR RAPIDS   TSTM      59  54  83 S7        29.87R
CHARLES CITY * PTSUNNY   64  57  77 S14       29.83S
CLINTON *        N/A     57  52  82 SE17      29.94F
DECORAH *      SUNNY     66  52  59 S8G21     29.83S
DUBUQUE        CLOUDY    61  52  72 S18       29.86F
MONTICELLO *   PTSUNNY   63  54  72 S9        29.88R
OELWEIN *      SUNNY     66  54  63 S17       29.86R
WATERLOO       CLOUDY    64  54  69 S15       29.83S
$$

IAZ064-065-067-068-078-031600-
   EAST CENTRAL IOWA

CITY           SKY/WX    TMP DP  RH WIND       PRES   REMARKS
DAVENPORT      CLOUDY    66  52  60 S17       29.91F
IOWA CITY      CLOUDY    61  54  77 CALM      29.89R
MT. PLEASANT * CLOUDY    61  54  77 S15       29.89F
MUSCATINE *    MOSUNNY   64  54  68 SE7G15    29.87F
QUAD CITIES    PTSUNNY   67  53  61 S12       29.91F
$$

IAZ062-063-075>077-085>089-095>099-031600-
   SOUTHEAST IOWA

CITY           SKY/WX    TMP DP  RH WIND       PRES   REMARKS
BURLINGTON     CLOUDY    67  51  56 S13       29.93S
FAIRFIELD *    MOSUNNY   64  54  68 S15G23    29.87S
FORT MADISON * SUNNY     66  52  59 S13       29.93F
KEOKUK *       SUNNY     68  54  60 SW10      29.92F
OSKALOOSA *      N/A     66  57  72 S14       29.84F
CENTERVILLE *  SUNNY     66  59  77 S12       29.88R
OTTUMWA        PTSUNNY   65  57  75 S16       29.84F
WASHINGTON *   MOSUNNY   64  63  94 S20       29.86R
$$

ABBREVIATIONS USED IN REMARKS
   TC - TEMPERATURES IN CELSIUS
  WCI - WIND CHILL INDEX
   HX - HEAT INDEX
  VSB - VISIBILITY
$$



USA.gov is the U.S. government's official web portal to all federal, state and local government web resources and services.